This is the latest recevied weather packets stored in our database for station/object K5NCO. If no packets are shown the sender has not sent any weather packets the latest 10 day(s).
| Time | Temp. | Humidity | Pressure | Rain* | Wind** | Luminosity | Snow |
|---|---|---|---|---|---|---|---|
| 1777598523 | 18.33° C | 98% | 1013.4 hPa | 0 mm | - | 0 W/m² | - |
| 1777598222 | 18.33° C | 98% | 1013.2 hPa | 0 mm | - | 0 W/m² | - |
| 1777597921 | 18.33° C | 98% | 1013 hPa | 0 mm | - | 0 W/m² | - |
| 1777597615 | 18.33° C | 98% | 1012.9 hPa | 0 mm | - | 0 W/m² | - |
| 1777597311 | 18.33° C | 98% | 1013.1 hPa | 0 mm | - | 1 W/m² | - |
| 1777597006 | 18.33° C | 98% | 1013.2 hPa | 0 mm | - | 1 W/m² | - |
| 1777596703 | 18.89° C | 98% | 1013.1 hPa | 0 mm | - | 1 W/m² | - |
| 1777596401 | 18.89° C | 98% | 1012.8 hPa | 0 mm | - | 2 W/m² | - |
| 1777596097 | 18.89° C | 98% | 1012.6 hPa | 0 mm | - | 5 W/m² | - |
| 1777595793 | 18.89° C | 98% | 1012.4 hPa | 0 mm | - | 5 W/m² | - |
| 1777595488 | 18.89° C | 98% | 1012.6 hPa | 0 mm | - | 5 W/m² | - |
| 1777595186 | 18.89° C | 98% | 1012 hPa | 0 mm | - | 11 W/m² | - |
| 1777594881 | 18.89° C | 98% | 1012.5 hPa | 0 mm | - | 14 W/m² | - |
| 1777594578 | 18.89° C | 98% | 1012.4 hPa | 0 mm | - | 15 W/m² | - |
| 1777594274 | 18.89° C | 98% | 1012.6 hPa | 0 mm | - | 20 W/m² | - |
| 1777593970 | 18.89° C | 98% | 1012.7 hPa | 0 mm | - | 23 W/m² | - |
| 1777593667 | 18.89° C | 98% | 1013.1 hPa | 0 mm | - | 19 W/m² | - |
| 1777593363 | 18.89° C | 98% | 1012.9 hPa | 0 mm | - | 26 W/m² | - |
| 1777593062 | 18.89° C | 98% | 1012.6 hPa | 0 mm | - | 39 W/m² | - |
| 1777592761 | 18.89° C | 98% | 1012.8 hPa | 0 mm | - | 44 W/m² | - |
| 1777592457 | 18.89° C | 98% | 1012.1 hPa | 0 mm | - | 68 W/m² | - |
| 1777592152 | 18.89° C | 98% | 1012 hPa | 0 mm | - | 93 W/m² | - |
| 1777591849 | 18.89° C | 98% | 1012.1 hPa | 0 mm | - | 63 W/m² | - |
| 1777591545 | 18.89° C | 98% | 1012.5 hPa | 0 mm | - | 92 W/m² | - |
| 1777591242 | 18.89° C | 98% | 1013.2 hPa | 0 mm | - | 57 W/m² | - |
* Rain latest hour (hover to see other rain measurements)
** Current wind speed in m/s (hover to see current wind gust speed)